Weather History for Frenchville, ME

Change the Weather History Date:

Thursday, November 7, 2013

  Actual Average Record
Temperature  
Mean Temperature 41 °F 34 °F  
Max Temperature 50 °F 40 °F 54 °F (2011)
Min Temperature 31 °F 28 °F 9 °F (2002)
Degree Days  
Heating Degree Days 24    
Month to date heating degree days 197  
Since 1 July heating degree days 1268  
Cooling Degree Days 0    
Month to date cooling degree days 0  
Year to date cooling degree days 139  
Moisture  
Dew Point 39 °F    
Average Humidity 86    
Maximum Humidity 97    
Minimum Humidity 59    
Precipitation  
Precipitation 0.14 in 0.09 in 0.63 in (2005)
Month to date precipitation 0.31 0.64  
Year to date precipitation 30.74 28.76  
Sea Level Pressure  
Sea Level Pressure 29.58 in    
Wind  
Wind Speed 11 mph (SW)    
Max Wind Speed 21 mph    
Max Gust Speed 28 mph    
Visibility 8 miles    
Events Fog , Rain    
T = Trace of Precipitation, MM = Missing Value Source: NWS Daily Summary

Daily Weather History Graph

Daily Weather History Graph

Search for Another Location

Airport:

Trip Planner

Search our weather history database for the weather conditions in past years. The results will help you decide how hot, cold, wet, or windy it might be!

Date:

Astronomy

Nov. 07, 2013 Rise Set
Actual Time 6:25 AM EST 4:07 PM EST
Civil Twilight 5:53 AM EST 4:39 PM EST
Nautical Twilight 5:16 AM EST 5:16 PM EST
Astronomical Twilight 4:40 AM EST 5:52 PM EST
Moon 10:35 AM EST (11/7) 8:12 PM EST (11/7)
Length of Visible Light 10h 46m
Length of Day
9h 41m
Waxing Crescent, 22% of the Moon is Illuminated
Nov 7
Waxing Crescent
Nov 10
First Quarter
Nov 17
Full
Nov 25
Last Quarter
Dec 2
New

Hourly Weather History & Observations

Time (EST) Temp. Windchill Dew Point Humidity Pressure Visibility Wind Dir Wind Speed Gust Speed Precip Events Conditions
12:53 AM 44.1 °F 38.6 °F 39.0 °F 82% 29.73 in 10.0 mi SSE 10.4 mph - 0.00 in   Overcast
1:25 AM 42.8 °F 37.0 °F 39.2 °F 87% 29.70 in 10.0 mi South 10.4 mph 18.4 mph 0.00 in Rain Light Rain
1:53 AM 43.0 °F 36.8 °F 41.0 °F 93% 29.70 in 10.0 mi SSE 11.5 mph - 0.01 in Rain Light Rain
2:07 AM 42.8 °F 37.0 °F 41.0 °F 93% 29.68 in 10.0 mi SSE 10.4 mph - 0.00 in Rain Light Rain
2:28 AM 42.8 °F 35.8 °F 41.0 °F 93% 29.67 in 10.0 mi South 13.8 mph 19.6 mph 0.01 in Rain Light Rain
2:53 AM 43.0 °F 36.4 °F 41.0 °F 93% 29.67 in 10.0 mi South 12.7 mph - 0.01 in Rain Light Rain
3:53 AM 44.1 °F 37.7 °F 42.1 °F 93% 29.64 in 10.0 mi South 12.7 mph 19.6 mph 0.02 in Rain Light Rain
4:18 AM 44.6 °F 38.8 °F 42.8 °F 93% 29.62 in 8.0 mi South 11.5 mph 19.6 mph 0.00 in Rain Light Rain
4:53 AM 44.1 °F 38.6 °F 42.1 °F 93% 29.62 in 4.0 mi South 10.4 mph - 0.02 in Rain Light Rain
5:53 AM 44.1 °F 40.1 °F 43.0 °F 96% 29.60 in 5.0 mi South 6.9 mph - 0.00 in   Overcast
6:53 AM 45.0 °F 40.1 °F 43.0 °F 93% 29.58 in 7.0 mi South 9.2 mph - N/A   Overcast
7:17 AM 46.4 °F 41.9 °F 44.6 °F 93% 29.56 in 10.0 mi South 9.2 mph - N/A   Overcast
7:53 AM 46.0 °F 39.9 °F 44.1 °F 93% 29.55 in 10.0 mi South 13.8 mph 20.7 mph N/A   Overcast
8:21 AM 46.4 °F 40.7 °F 44.6 °F 93% 29.53 in 10.0 mi South 12.7 mph - N/A   Overcast
8:29 AM 46.4 °F 41.5 °F 44.6 °F 93% 29.53 in 9.0 mi South 10.4 mph - N/A   Overcast
8:53 AM 46.9 °F - 45.0 °F 93% 29.54 in 10.0 mi South 11.5 mph 19.6 mph N/A   Overcast
9:53 AM 48.0 °F - 46.0 °F 93% 29.53 in 10.0 mi South 13.8 mph - 0.00 in   Overcast
10:12 AM 48.2 °F - 46.4 °F 93% 29.52 in 10.0 mi South 9.2 mph - 0.00 in   Overcast
10:53 AM 48.9 °F - 46.9 °F 93% 29.52 in 3.0 mi South 12.7 mph - 0.01 in Rain Light Rain
11:03 AM 48.2 °F - 46.4 °F 93% 29.51 in 2.0 mi South 10.4 mph 18.4 mph 0.00 in Rain Light Rain
11:06 AM 48.2 °F - 46.4 °F 93% 29.51 in 1.5 mi South 11.5 mph - 0.00 in Rain Light Rain
11:10 AM 48.2 °F - 46.4 °F 93% 29.51 in 0.8 mi South 11.5 mph - 0.00 in Rain Light Rain
11:53 AM 48.9 °F - 48.0 °F 97% 29.50 in 0.2 mi WSW 10.4 mph 17.3 mph 0.02 in Fog , Rain Light Rain
11:59 AM 48.2 °F - 46.4 °F 93% 29.50 in 1.8 mi SW 12.7 mph - 0.01 in Rain Light Rain
12:01 PM 48.2 °F - 46.4 °F 93% 29.50 in 3.0 mi SSW 12.7 mph - 0.01 in Rain Rain
12:09 PM 50.0 °F - 46.4 °F 87% 29.49 in 7.0 mi SW 12.7 mph - 0.01 in Rain Light Rain
12:14 PM 50.0 °F - 46.4 °F 87% 29.49 in 10.0 mi SW 11.5 mph - 0.01 in Rain Light Rain
12:53 PM 50.0 °F - 44.1 °F 80% 29.50 in 10.0 mi WSW 9.2 mph 19.6 mph 0.01 in Rain Light Rain
1:17 PM 48.2 °F - 44.6 °F 87% 29.52 in 10.0 mi NNW 17.3 mph 21.9 mph 0.01 in   Overcast
1:31 PM 42.8 °F 35.1 °F 37.4 °F 81% 29.53 in 10.0 mi NNW 16.1 mph 20.7 mph 0.01 in Rain Light Rain
1:53 PM 39.9 °F 31.4 °F 36.0 °F 86% 29.55 in 10.0 mi NNW 16.1 mph 21.9 mph 0.03 in Rain Light Rain
2:07 PM 39.2 °F 31.2 °F 35.6 °F 87% 29.55 in 10.0 mi NNW 13.8 mph 23.0 mph 0.01 in Rain Light Rain
2:53 PM 39.9 °F 33.4 °F 35.1 °F 83% 29.56 in 10.0 mi NW 10.4 mph - 0.01 in   Overcast
3:53 PM 39.0 °F 35.7 °F 35.1 °F 86% 29.58 in 10.0 mi NW 4.6 mph - N/A   Mostly Cloudy
4:53 PM 37.9 °F 31.5 °F 32.0 °F 79% 29.60 in 10.0 mi NW 9.2 mph - N/A   Scattered Clouds
5:53 PM 37.0 °F 28.9 °F 32.0 °F 82% 29.60 in 10.0 mi North 12.7 mph - N/A   Overcast
6:53 PM 36.0 °F 26.0 °F 28.9 °F 76% 29.63 in 10.0 mi NNW 17.3 mph 27.6 mph N/A   Overcast
7:18 PM 35.6 °F 28.0 °F 28.4 °F 75% 29.63 in 10.0 mi NW 10.4 mph - N/A   Mostly Cloudy
7:53 PM 35.1 °F 26.9 °F 26.1 °F 70% 29.65 in 10.0 mi NW 11.5 mph - N/A   Overcast
8:53 PM 34.0 °F 25.5 °F 23.0 °F 64% 29.65 in 10.0 mi WNW 11.5 mph - N/A   Mostly Cloudy
9:53 PM 34.0 °F 26.6 °F 21.0 °F 59% 29.64 in 10.0 mi NW 9.2 mph - N/A   Overcast
10:53 PM 30.9 °F 25.2 °F 21.0 °F 67% 29.62 in 10.0 mi WNW 5.8 mph - N/A   Clear
11:53 PM 32.0 °F 25.6 °F 21.0 °F 64% 29.62 in 10.0 mi West 6.9 mph - N/A   Overcast